Change the Weather History Date:

Thursday, October 24, 2013

  Actual Average (KLSE) Record (KLSE)
Temperature  
Mean Temperature 36 °F 47 °F  
Max Temperature 41 °F 56 °F 80 °F (1973)
Min Temperature 31 °F 38 °F 17 °F (1887)
Degree Days  
Heating Degree Days 29 18  
Month to date heating degree days 332  
Since 1 July heating degree days 492  
Cooling Degree Days 0 0  
Month to date cooling degree days 7  
Year to date cooling degree days 781  
Moisture  
Dew Point 24 °F    
Average Humidity 66    
Maximum Humidity 79    
Minimum Humidity 48    
Precipitation  
Precipitation 0.00 in 0.06 in 1.26 in (1946)
Month to date precipitation 1.73  
Year to date precipitation 29.25  
Snow  
Snow 0.00 in 0.00 in 0.80 in (2002)
Month to date snowfall 0.1  
Since 1 July snowfall 0.1  
Snow Depth -    
Sea Level Pressure  
Sea Level Pressure 30.17 in    
Wind  
Wind Speed 8 mph (WNW)    
Max Wind Speed 15 mph    
Max Gust Speed 21 mph    
Visibility 10 miles    
Events      
T = Trace of Precipitation, MM = Missing Value Source: NWS Daily Summary

Daily Weather History Graph

Daily Weather History Graph

Search for Another Location

Airport or City:

Trip Planner

Search our weather history database for the weather conditions in past years. The results will help you decide how hot, cold, wet, or windy it might be!

Date:

Astronomy

Oct. 24, 2013 Rise Set
Actual Time 7:29 AM CDT 6:05 PM CDT
Civil Twilight 6:59 AM CDT 6:34 PM CDT
Nautical Twilight 6:26 AM CDT 7:08 PM CDT
Astronomical Twilight 5:53 AM CDT 7:41 PM CDT
Moon 10:26 PM CDT (10/24) 12:34 PM CDT (10/24)
Length of Visible Light 11h 34m
Length of Day
10h 36m
Waning Gibbous, 71% of the Moon is Illuminated
Oct 24
Waning Gibbous
Oct 26
Last Quarter
Nov 3
New
Nov 9
First Quarter
Nov 17
Full

Hourly Weather History & Observations

Time (CDT) Temp. Windchill Dew Point Humidity Pressure Visibility Wind Dir Wind Speed Gust Speed Precip Events Conditions
12:15 AM 32.2 °F 23.8 °F 26.4 °F 79% 30.03 in 10.0 mi NW 10.4 mph - N/A   Overcast
12:35 AM 32.2 °F 25.0 °F 25.7 °F 77% 30.03 in 10.0 mi NW 8.1 mph - N/A   Overcast
12:55 AM 32.0 °F 24.8 °F 25.3 °F 76% 30.04 in 10.0 mi NW 8.1 mph - N/A   Overcast
1:15 AM 32.0 °F 24.8 °F 25.0 °F 75% 30.04 in 10.0 mi NW 8.1 mph - N/A   Overcast
1:35 AM 32.0 °F 24.2 °F 24.8 °F 75% 30.05 in 10.0 mi NW 9.2 mph - N/A   Overcast
1:55 AM 32.0 °F 25.6 °F 24.1 °F 73% 30.05 in 10.0 mi NW 6.9 mph - N/A   Overcast
2:15 AM 32.0 °F 26.4 °F 24.1 °F 73% 30.05 in 10.0 mi NW 5.8 mph - N/A   Overcast
2:35 AM 31.8 °F 24.6 °F 23.7 °F 72% 30.05 in 10.0 mi NW 8.1 mph - N/A   Overcast
2:55 AM 31.8 °F 24.6 °F 23.0 °F 70% 30.05 in 10.0 mi NW 8.1 mph - N/A   Overcast
3:15 AM 31.6 °F 24.4 °F 23.0 °F 70% 30.05 in 10.0 mi NW 8.1 mph - N/A   Overcast
3:35 AM 31.6 °F 25.1 °F 23.0 °F 70% 30.06 in 10.0 mi NW 6.9 mph - N/A   Overcast
3:55 AM 31.8 °F 25.4 °F 22.5 °F 68% 30.06 in 10.0 mi NW 6.9 mph - N/A   Overcast
4:15 AM 32.0 °F 25.6 °F 21.7 °F 66% 30.07 in 10.0 mi NW 6.9 mph - N/A   Overcast
4:35 AM 32.0 °F 25.6 °F 21.4 °F 65% 30.07 in 10.0 mi NW 6.9 mph - N/A   Overcast
4:55 AM 32.0 °F 25.6 °F 20.8 °F 63% 30.08 in 10.0 mi NW 6.9 mph - N/A   Overcast
5:15 AM 32.0 °F 24.2 °F 21.2 °F 64% 30.08 in 10.0 mi NNW 9.2 mph - N/A   Overcast
5:35 AM 32.0 °F 24.2 °F 21.4 °F 65% 30.09 in 10.0 mi NNW 9.2 mph - N/A   Overcast
5:55 AM 32.0 °F 24.2 °F 21.9 °F 66% 30.10 in 10.0 mi NW 9.2 mph - N/A   Overcast
6:15 AM 32.0 °F 24.2 °F 21.7 °F 66% 30.10 in 10.0 mi NW 9.2 mph - N/A   Overcast
6:35 AM 32.0 °F 24.2 °F 22.1 °F 67% 30.11 in 10.0 mi NW 9.2 mph - N/A   Overcast
6:55 AM 31.8 °F 24.6 °F 22.1 °F 67% 30.11 in 10.0 mi NW 8.1 mph - N/A   Overcast
7:15 AM 31.8 °F 23.9 °F 22.8 °F 69% 30.12 in 10.0 mi NW 9.2 mph - N/A   Overcast
7:35 AM 31.6 °F 23.7 °F 23.0 °F 70% 30.12 in 10.0 mi NW 9.2 mph - N/A   Overcast
7:55 AM 31.6 °F 25.1 °F 23.7 °F 73% 30.13 in 10.0 mi NW 6.9 mph - N/A   Overcast
8:15 AM 32.0 °F 24.8 °F 24.8 °F 75% 30.14 in 10.0 mi NW 8.1 mph - N/A   Overcast
8:35 AM 32.0 °F 23.6 °F 25.0 °F 75% 30.15 in 10.0 mi NW 10.4 mph - N/A   Overcast
8:55 AM 32.0 °F 24.8 °F 25.3 °F 76% 30.16 in 10.0 mi NW 8.1 mph - N/A   Overcast
9:15 AM 32.4 °F 24.0 °F 25.7 °F 76% 30.17 in 10.0 mi NW 10.4 mph - N/A   Overcast
9:35 AM 32.9 °F 24.7 °F 25.5 °F 74% 30.17 in 10.0 mi NW 10.4 mph - N/A   Overcast
9:55 AM 32.9 °F 24.7 °F 25.5 °F 74% 30.18 in 10.0 mi NW 10.4 mph - N/A   Overcast
10:15 AM 33.8 °F 24.8 °F 25.2 °F 71% 30.18 in 10.0 mi NW 12.7 mph - N/A   Overcast
10:35 AM 34.5 °F 27.3 °F 26.2 °F 72% 30.19 in 10.0 mi West 9.2 mph - N/A   Overcast
10:55 AM 35.1 °F 27.9 °F 26.4 °F 71% 30.19 in 10.0 mi WNW 9.2 mph - N/A   Overcast
11:15 AM 35.1 °F 27.9 °F 25.0 °F 67% 30.20 in 10.0 mi NNW 9.2 mph 19.6 mph N/A   Overcast
11:35 AM 36.1 °F 26.9 °F 24.1 °F 62% 30.20 in 10.0 mi NNW 15.0 mph 19.6 mph N/A   Overcast
11:44 AM 35.6 °F 27.5 °F 24.8 °F 65% 30.20 in 10.0 mi NNW 11.5 mph 16.1 mph N/A   Overcast
11:55 AM 36.5 °F 28.7 °F 24.4 °F 62% 30.20 in 10.0 mi NNW 11.5 mph - N/A   Overcast
12:15 PM 36.9 °F 29.1 °F 23.7 °F 59% 30.20 in 10.0 mi NW 11.5 mph 17.3 mph N/A   Overcast
12:35 PM 38.1 °F 31.7 °F 24.1 °F 57% 30.20 in 10.0 mi WNW 9.2 mph 18.4 mph N/A   Overcast
12:55 PM 38.3 °F 31.9 °F 24.3 °F 57% 30.20 in 10.0 mi WNW 9.2 mph - N/A   Overcast
1:15 PM 38.8 °F 32.1 °F 24.3 °F 56% 30.20 in 10.0 mi WNW 10.4 mph 16.1 mph N/A   Overcast
1:35 PM 39.0 °F 31.0 °F 24.1 °F 55% 30.20 in 10.0 mi WNW 13.8 mph 17.3 mph N/A   Overcast
1:55 PM 39.7 °F 34.9 °F 24.3 °F 54% 30.20 in 10.0 mi NW 6.9 mph 16.1 mph N/A   Overcast
2:15 PM 40.5 °F 35.8 °F 22.8 °F 49% 30.20 in 10.0 mi NW 6.9 mph 20.7 mph N/A   Overcast
2:35 PM 40.3 °F 33.4 °F 23.2 °F 51% 30.20 in 10.0 mi NW 11.5 mph 18.4 mph N/A   Overcast
2:55 PM 39.6 °F 32.5 °F 23.0 °F 52% 30.20 in 10.0 mi NW 11.5 mph - N/A   Overcast
3:15 PM 40.3 °F 33.9 °F 23.2 °F 51% 30.21 in 10.0 mi WNW 10.4 mph 18.4 mph N/A   Overcast
3:35 PM 41.2 °F 35.0 °F 23.0 °F 48% 30.21 in 10.0 mi West 10.4 mph 17.3 mph N/A   Overcast
3:55 PM 39.6 °F 33.0 °F 23.2 °F 52% 30.22 in 10.0 mi WNW 10.4 mph 17.3 mph N/A   Overcast
4:15 PM 38.7 °F 32.9 °F 23.0 °F 53% 30.22 in 10.0 mi WNW 8.1 mph 16.1 mph N/A   Overcast
4:35 PM 39.2 °F 34.2 °F 22.8 °F 52% 30.22 in 10.0 mi WNW 6.9 mph - N/A   Overcast
4:55 PM 38.7 °F 32.9 °F 22.1 °F 51% 30.22 in 10.0 mi West 8.1 mph - N/A   Overcast
5:15 PM 38.8 °F 33.8 °F 23.2 °F 53% 30.22 in 10.0 mi WNW 6.9 mph - N/A   Mostly Cloudy
5:35 PM 37.4 °F 33.8 °F 23.7 °F 58% 30.23 in 10.0 mi West 4.6 mph - N/A   Mostly Cloudy
5:55 PM 37.2 °F 33.6 °F 24.4 °F 60% 30.24 in 10.0 mi WNW 4.6 mph - N/A   Overcast
6:15 PM 36.9 °F 34.3 °F 24.6 °F 61% 30.24 in 10.0 mi West 3.5 mph - N/A   Overcast
6:35 PM 37.0 °F 32.4 °F 24.4 °F 60% 30.24 in 10.0 mi West 5.8 mph - N/A   Overcast
6:55 PM 36.5 °F 32.7 °F 25.3 °F 64% 30.25 in 10.0 mi West 4.6 mph - N/A   Overcast
7:15 PM 36.0 °F 32.1 °F 25.7 °F 66% 30.25 in 10.0 mi West 4.6 mph - N/A   Overcast
7:35 PM 36.1 °F 32.3 °F 25.3 °F 65% 30.25 in 10.0 mi West 4.6 mph - N/A   Overcast
7:55 PM 35.8 °F 30.9 °F 25.7 °F 67% 30.25 in 10.0 mi WSW 5.8 mph - N/A   Overcast
8:15 PM 34.9 °F 29.9 °F 24.8 °F 67% 30.25 in 10.0 mi West 5.8 mph - N/A   Scattered Clouds
8:35 PM 34.2 °F 28.2 °F 24.8 °F 69% 30.26 in 10.0 mi West 6.9 mph - N/A   Clear
8:55 PM 34.2 °F 29.0 °F 24.8 °F 69% 30.26 in 10.0 mi West 5.8 mph - N/A   Clear
9:15 PM 33.1 °F 26.9 °F 25.0 °F 72% 30.26 in 10.0 mi West 6.9 mph - N/A   Clear
9:35 PM 32.9 °F 26.7 °F 25.5 °F 74% 30.27 in 10.0 mi West 6.9 mph - N/A   Clear
9:55 PM 32.4 °F 27.9 °F 25.5 °F 76% 30.27 in 10.0 mi West 4.6 mph - N/A   Clear
10:15 PM 32.0 °F 27.5 °F 25.5 °F 77% 30.28 in 10.0 mi West 4.6 mph - N/A   Clear
10:35 PM 32.0 °F 26.4 °F 25.3 °F 76% 30.28 in 10.0 mi WNW 5.8 mph - N/A   Clear
10:55 PM 32.0 °F 27.5 °F 25.3 °F 76% 30.28 in 10.0 mi WNW 4.6 mph - N/A   Clear
11:15 PM 32.2 °F 28.9 °F 25.3 °F 76% 30.28 in 10.0 mi WNW 3.5 mph - N/A   Clear
11:35 PM 32.0 °F - 25.3 °F 76% 30.28 in 10.0 mi Calm Calm - N/A   Clear
11:55 PM 31.6 °F 27.0 °F 25.2 °F 77% 30.29 in 10.0 mi West 4.6 mph - N/A   Clear